Date,TemperatureHighF,TemperatureAvgF,TemperatureLowF,DewpointHighF,DewpointAvgF,DewpointLowF,HumidityHigh,HumidityAvg,HumidityLow,PressureMaxIn,PressureMinIn,WindSpeedMaxMPH,WindSpeedAvgMPH,GustSpeedMaxMPH,PrecipitationSumIn
2013-2-2,44,40,28,36,16,8,78,38,26,30.30,29.93,1,-530,1,0.00
2013-2-3,49,42,35,36,29,22,85,62,40,29.93,29.74,8,-656,8,0.00
2013-2-4,48,40,31,27,23,18,70,51,32,30.04,29.88,185,-696,185,0.00
2013-2-5,61,48,38,34,31,27,72,55,32,29.92,29.76,2,-673,6,0.00
2013-2-6,48,46,45,33,33,32,63,59,54,29.87,29.85,0,-999,0,0.00
2013-2-7,42,42,42,42,41,41,97,96,95,29.97,29.88,0,-999,0,0.23
2013-2-8,55,45,38,45,39,28,97,81,55,29.95,29.71,6,-741,7,0.40
2013-2-9,51,43,32,29,21,15,75,45,24,30.25,29.95,8,-651,13,0.00
2013-2-10,54,43,32,41,23,16,91,47,27,30.38,30.10,1,-717,7,0.03
2013-2-11,62,58,44,59,56,41,100,93,87,30.10,29.81,0,-999,0,0.05
2013-2-12,60,53,45,53,35,24,93,56,26,29.97,29.79,8,-695,8,0.00
2013-2-13,52,46,43,46,42,30,95,88,42,29.84,29.53,0,-999,0,0.12
2013-2-14,52,44,34,35,32,30,87,63,45,29.96,29.88,0,-526,0,0.00
2013-2-15,62,48,35,37,32,28,87,58,29,29.98,29.82,0,-647,0,0.00
2013-2-16,46,34,29,35,31,24,94,89,64,29.85,29.73,0,-999,0,0.18
2013-2-17,37,30,24,24,15,7,82,56,29,30.10,29.82,7,-597,13,0.00
2013-2-18,53,42,27,26,20,10,66,43,26,30.31,30.15,1,-537,2,0.00
2013-2-19,50,41,33,48,36,26,95,84,66,30.15,29.76,0,-999,0,0.16
2013-2-21,46,45,44,24,21,19,44,39,33,30.14,30.08,0,-999,0,0.00
2013-2-22,44,36,33,35,31,-100,95,85,41,30.24,30.05,0,-999,0,0.29
2013-2-23,43,41,38,42,40,36,97,95,93,29.89,29.72,0,-999,0,0.51
2013-2-24,62,50,43,45,38,26,100,70,27,29.89,29.70,6,-574,9,0.05
2013-2-25,42,38,33,27,23,20,66,57,46,30.12,29.95,4,-763,7,0.00
2013-2-26,58,44,34,58,40,25,100,89,61,30.03,29.45,0,-999,0,0.55
2013-2-27,60,50,43,44,39,35,97,68,44,29.68,29.52,4,-550,8,0.00
2013-2-28,50,43,37,38,31,24,83,63,37,29.75,29.59,8,-839,10,0.00